Regional Weather Roundup
Issued by NWS

Home | Current Version | Previous Version | Graphics & Text | Print | Product List | Glossary Off
Versions: 1 2 3 4 5 6 7 8 9 10 11 12 13 14 15 16 17 18 19 20 21 22 23 24 25 26 27 28 29 30 31 32 33 34 35 36 37 38 39 40 41 42 43 44 45 46 47 48 49 50

000
ASUS43 KTOP 060208
RWRKS

WEATHER ROUNDUP FOR KANSAS
NATIONAL WEATHER SERVICE GOODLAND KS
800 PM CST THU MAR 05 2015

NOTE:  "FAIR" INDICATES FEW OR NO CLOUDS BELOW 12,000 FEET WITH NO
SIGNIFICANT WEATHER AND/OR OBSTRUCTIONS TO VISIBILITY.

KSZ001>006-013>018-027>032-041>047-060300-
NORTHWEST KANSAS

CITY           SKY/WX    TMP DP  RH WIND       PRES   REMARKS
GOODLAND       PTCLDY    37  18  46 SW10      30.27R WCI  30
HAYS           CLOUDY    36   7  30 S9        30.31S
HILL CITY      PTCLDY    38   7  27 SW9       30.28R
RUSSELL        CLOUDY    34   8  33 S12       30.30F WCI  25
$$

KSZ061>065-074>080-084>089-060300-
SOUTHWEST KANSAS

CITY           SKY/WX    TMP DP  RH WIND       PRES   REMARKS
DODGE CITY     PTCLDY    33  14  45 S7        30.34R
ELKHART          N/A     34  16  48 S8          N/A
GARDEN CITY    PTCLDY    32  17  54 S7        30.31R
GREAT BEND     PTCLDY    30  14  51 S9        30.35S
LIBERAL        CLEAR     32  19  59 S9        30.33F
PRATT          PTCLDY    34  18  51 CALM      30.39R
$$

KSZ066>073-081>083-090>101-060300-
SOUTHEAST KANSAS

CITY           SKY/WX    TMP DP  RH WIND       PRES   REMARKS
CHANUTE        CLEAR     30  17  58 SE9       30.48S
COFFEYVILLE    CLEAR     31  18  58 SE7       30.50R
HUTCHINSON     MOCLDY    32  16  51 SE3       30.39R
MEDICINE LODGE   N/A     37  19  48 SE12      30.38S WCI  29
NEWTON         PTCLDY    34  16  47 S7        30.41S
PARSONS        CLEAR     32  19  58 SE5       30.50R
WICHITA INTL   PTCLDY    32  17  54 S8        30.42R
WICHITA JABRA  CLEAR     34  14  43 S7        30.42R
WICHITA MCCONL CLEAR     32  15  48 S6        30.42R
WINFIELD       CLEAR     33  20  58 S9        30.46S
$$

KSZ007>012-019>026-033>040-048>060-102>105-060300-
NORTHEAST KANSAS

CITY           SKY/WX    TMP DP  RH WIND       PRES   REMARKS
CONCORDIA      PTCLDY    34   8  33 S9        30.34F
EMPORIA        CLEAR     27  18  69 E9        30.44R
LAWRENCE       CLEAR     22  12  65 SE7       30.48S
MANHATTAN      PTCLDY    29  12  49 CALM      30.42S
MARYSVILLE     PTCLDY    30  12  47 SE7       30.38F
OLATHE IND     CLEAR     26  13  57 SE7       30.48F
OLATHE EXE     CLEAR     25  14  63 SE5       30.48S
SALINA         PTCLDY    30  12  47 S10       30.38F WCI  21
TOPEKA BILLARD CLEAR     28  13  53 SE8       30.47S
TOPEKA FORBES  CLEAR     27  14  58 SE8       30.45S
$$


USA.gov is the U.S. government's official web portal to all federal, state and local government web resources and services.